Home   Weather   Durham   Past weeks

Flag for United Kingdom Past Weather in Durham, England, United Kingdom — Yesterday and Last 2 Weeks

Now
48 °F

Passing clouds.


Feels Like: 46 °F
Forecast: 39 / 55 °F
Wind: 5 mph from Southwest

Location: Newcastle

Current Time: Sep 30, 2016 at 9:18:51 PM

Latest Report: Sep 30, 2016 at 8:50 PM


Visibility: N/A

Pressure: 29.74 "Hg

Humidity: 87%

Dew Point: 45 °F

Location of DurhamLocation

Past Weather in Durham — Graph

°F

Durham Temperature Yesterday

Maximum temperature yesterday: 63 °F (at 12:50 AM)
Minimum temperature yesterday: 48 °F (at 8:20 PM)
Average temperature yesterday: 55 °F

High & Low Weather Summary for the Past Weeks

 TemperatureHumidityPressure
High68 °F (Sep 18, 2:20 PM)100% (Sep 15, 10:50 PM)30.21 "Hg (Sep 15, 10:50 PM)
Low43 °F (Sep 23, 4:20 AM)52% (Sep 22, 2:20 PM)29.62 "Hg (Sep 25, 5:20 AM)
Average56 °F84%29.96 "Hg
* Reported Sep 15 7:20 PM — Sep 30 7:50 PM, Durham, Weather by CustomWeather, © 2016

Note: Actual official high and low records may vary slightly from our data, if they occured in-between our weather recording intervals... More about our weather records

Advertising

Durham Weather History for the Previous 24 Hours

Scroll right to see more
 ConditionsComfort  
Time TempWeatherWind HumidityBarometerVisibility
7:50 PM
Fri, Sep 30
50 °FPassing clouds.6 mph82%29.74 "HgN/A
7:20 PM50 °FPassing clouds.5 mph82%29.74 "HgN/A
6:50 PM50 °FPassing clouds.3 mph82%29.74 "HgN/A
6:20 PM52 °FPassing clouds.7 mph77%29.74 "HgN/A
5:50 PM54 °FPassing clouds.9 mph72%29.74 "HgN/A
5:20 PM54 °FPassing clouds.13 mph77%29.71 "HgN/A
4:50 PM55 °FPassing clouds.10 mph67%29.71 "HgN/A
4:20 PM55 °FPassing clouds.13 mph72%29.71 "HgN/A
3:50 PM55 °FPassing clouds.15 mph72%29.71 "HgN/A
3:20 PM57 °FPassing clouds.16 mph67%29.71 "HgN/A
2:50 PM57 °FPassing clouds.16 mph63%29.71 "HgN/A
2:20 PM55 °FPassing clouds.16 mph67%29.71 "HgN/A
1:50 PM57 °FPassing clouds.16 mph72%29.71 "HgN/A
1:20 PM57 °FPassing clouds.15 mph72%29.71 "HgN/A
12:50 PM55 °FPassing clouds.18 mph72%29.71 "HgN/A
12:20 PM57 °FPassing clouds.13 mph67%29.71 "HgN/A
11:20 AM55 °FPassing clouds.13 mph77%29.71 "HgN/A
10:50 AM52 °FPassing clouds.8 mph82%29.71 "HgN/A
10:20 AM54 °FPassing clouds.7 mph82%29.71 "HgN/A
9:50 AM50 °FScattered showers. Passing clouds.5 mph94%29.71 "HgN/A
8:50 AM48 °FPassing clouds.3 mph94%29.71 "HgN/A
8:20 AM46 °FPassing clouds.1 mph100%29.71 "HgN/A
7:50 AM46 °FPassing clouds.3 mph100%29.71 "HgN/A
7:20 AM46 °FPassing clouds.2 mph93%29.71 "HgN/A
6:50 AM46 °FPassing clouds.2 mph93%29.71 "HgN/A
6:20 AM46 °FPassing clouds.5 mph93%29.71 "HgN/A
5:50 AM46 °FPassing clouds.5 mph93%29.71 "HgN/A
4:50 AM48 °FPassing clouds.5 mph87%29.71 "HgN/A
3:50 AM46 °FPassing clouds.3 mph93%29.71 "HgN/A
2:50 AM48 °FPassing clouds.7 mph87%29.71 "HgN/A
2:20 AM50 °FPassing clouds.9 mph82%29.71 "HgN/A
1:50 AM50 °FPassing clouds.9 mph82%29.74 "HgN/A
1:20 AM50 °FPassing clouds.7 mph88%29.74 "HgN/A
12:20 AM48 °FPassing clouds.7 mph94%29.74 "HgN/A
11:20 PM
Thu, Sep 29
48 °FPassing clouds.8 mph87%29.74 "HgN/A
10:50 PM50 °FPassing clouds.8 mph82%29.74 "HgN/A
10:20 PM50 °FPassing clouds.12 mph88%29.74 "HgN/A
9:50 PM50 °FPassing clouds.8 mph88%29.74 "HgN/A
9:20 PM50 °FPassing clouds.6 mph88%29.74 "HgN/A
Weather by CustomWeather, © 2016

See weather overviewHow to use our weather pages